www.pogodaiklimat.ru

Погода и климат >> Архив погоды >> Индия >> Hoshangabad


ПОГОДА в Hoshangabad

  • Прогноз погоды в Hoshangabad
  • Монитор погоды в Hoshangabad
  • Климат города

АРХИВ ПОГОДЫ в Hoshangabad

Время (UTC), дата Ветер
(напр.,м/с)
 
Видим.   Явления Облачность Т
(С)
Тd
(С)
f
(%)
Тe
(С)
Тes
(С)
Комфортность P
(гПа)
Po
(гПа)
Тmin
(С)
Tmax
(С)
R
(мм)
R24
(мм)
S
(см)
03 13.01 штиль 0 4000 м ясно +16.0 +10.3 69 +16 +19 1017.9 982.5 +12.6
06 13.01 ЮВ 1 4000 м 5/0
[Ac trans Ci fib]
+23.0 +10.3 45 +25 +36 комфорт 1017.4 982.9
09 13.01 ЮВ 1 4000 м 4/0
[Ci fib]
+27.4 +10.9 36 +28 +36 жарко 1013.9 980.0
12 13.01 ЮВ 1 4000 м 4/0
[Ci fib]
+25.0 +11.7 43 +26 +26 жарко 1012.3 978.2 +28.0
03 14.01 В 1 4000 м 1/0
[Ci fib]
+17.0 +12.7 76 +19 +22 1017.1 981.9 +14.2
06 14.01 ЮВ 1 4000 м 3/0
[Ac trans]
+25.0 +13.0 47 +27 +38 жарко 1016.3 982.0
09 14.01 ЮВ 1 4000 м 3/0
[Ac trans]
+27.0 +15.2 48 +30 +38 душно 1013.2 979.2
12 14.01 штиль 0 4000 м 4/0
[Ac trans]
+26.8 +15.7 51 +30 +30 душно 1012.9 979.0 +29.7
03 15.01 штиль 0 4000 м ясно +16.6 +12.6 77 +17 +20 1018.5 983.2 +14.4
06 15.01 ЮВ 1 4000 м ясно +25.2 +12.4 45 +27 +41 жарко 1017.5 983.2
09 15.01 штиль 0 4000 м ясно +29.4 +12.9 36 +31 +41 жарко 1013.2 979.6
12 15.01 В 1 4000 м ясно +26.4 +14.0 46 +29 +29 жарко 1012.6 978.7 +30.6
03 16.01 ЮВ 1 4000 м ясно +15.2 +11.9 81 +16 +19 1017.0 981.6 +11.6
06 16.01 СВ 1 4000 м ясно +23.6 +12.4 49 +25 +38 комфорт 1016.0 981.6
09 16.01 СВ 2 4000 м ясно +27.4 +11.8 38 +29 +37 жарко 1012.5 978.7
12 16.01 В 1 4000 м ясно +25.2 +14.1 50 +28 +28 жарко 1010.9 976.9 +28.5
03 17.01 ЮВ 1 4000 м ясно +15.4 +8.8 65 +16 +19 1015.7 980.4 +12.0
06 17.01 ЮВ 1 4000 м ясно +23.2 +8.6 39 +24 +38 комфорт 1014.4 980.1
09 17.01 В 1 4000 м ясно +28.2 +10.1 32 +28 +38 жарко 1011.7 978.0
12 17.01 В 1 4000 м ясно +27.2 +11.5 38 +28 +28 жарко 1011.2 977.4 +29.6
03 18.01 ЮВ 1 4000 м ясно +16.4 +6.2 51 +17 +20 1017.0 981.8 +12.4
06 18.01 ЮВ 1 4000 м ясно +23.0 +7.8 38 +24 +37 комфорт 1016.9 982.4
09 18.01 ЮВ 1 10 км ясно +28.2 +10.6 33 +29 +38 жарко 1013.3 979.6
12 18.01 ЮВ 2 10 км ясно +24.6 +14.5 53 +27 +27 жарко 1012.6 978.5 +28.7
03 19.01 ЮВ 2 4000 м ясно +15.4 +10.9 75 +16 +18 1017.6 982.2 +12.6
06 19.01 ЮВ 1 4000 м ясно +23.4 +7.9 37 +24 +38 комфорт 1016.9 982.5
09 19.01 ЮВ 1 10 км ясно +28.0 +8.7 30 +28 +37 жарко 1013.9 980.0
12 19.01 ЮВ 1 10 км ясно +26.6 +11.6 39 +28 +28 жарко 1013.3 979.3 +29.4

 

Местоположение метеостанции Hoshangabad (Madhya Pradesh, Индия): широта 22.77 долгота 77.77 высота над уровнем моря 302 м.

В архиве по умолчанию представлена погода в Hoshangabad за последнюю неделю. Архивные данные за месяц целиком и за предыдущие месяцы, начиная с января 2011 года, Вы можете получить, выбрав интересующий диапазон дат из раскрывающегося списка и нажав кнопку "Ввод!".

Внимание! Время в таблицах - всемирное. Для получения местного времени необходимо прибавить поправку, которая в Hoshangabad равна 5.5 ч.

Смотрите также архив погоды в соседних городах и на ближайших метеорологических станциях:

Погода в Raisen (Madhya Pradesh, Индия) (61 км)
Погода в Bhopal (Madhya Pradesh, Индия) (71 км)
Погода в Pachmarhi (Madhya Pradesh, Индия) (76 км)
Погода в Betul (Madhya Pradesh, Индия) (101 км)
Погода в Narsinghpur (Madhya Pradesh, Индия) (146 км)
Погода в Chhindwara (Madhya Pradesh, Индия) (147 км)
Погода в Sagar (Madhya Pradesh, Индия) (156 км)
Погода в Shajapur (Madhya Pradesh, Индия) (166 км)
Погода в Rajgarh (Madhya Pradesh, Индия) (174 км)
Погода в Khandwa (Madhya Pradesh, Индия) (178 км)

Пояснения к столбцам:

Ветер - указаны скорость ветра в м/с - средняя за 10 мин, порывы в срок и между сроками (в фигурных скобках) и направление, откуда дует ветер: С - северный, СВ - северо-восточный, В - восточный, ЮВ - юго-восточный, Ю - южный, ЮЗ - юго-западный, З - западный, СЗ - северо-западный.
Видимость - горизонтальная дальность видимости в метрах или километрах. При видимости от 1 до 10 км при отсутствии осадков обычно наблюдается дымка, при ухудшении видимости до 1 км и менее - туман. В сухую погоду видимость может ухудшаться дымом, пылью или мглою.
Явления - указаны атмосферные явления, наблюдавшиеся в срок или в последний час перед сроком; фигурными скобками обозначены явления, наблюдавшиеся между сроками (за 1-3 часа до срока); квадратными скобками обозначены град или гололедные отложения с указанием их диаметра в мм.
Облачность - указаны через наклонную черту общая и нижняя облачность в баллах и высота нижней границы облаков в метрах; квадратными скобками обозначены формы облаков: Ci - перистые, Cs - перисто-слоистые, Cc - перисто-кучевые, Ac - высококучевые, As - высокослоистые, Sc - слоисто-кучевые, Ns - слоисто-дождевые, Cu - кучевые, Cb - кучево-дождевые. Подробнее классификацию облаков см. в Атласе облаков (PDF).
T - Температура воздуха - температура, измеренная на высоте 2 м над землей.
Td - Температура точки росы - температура, при понижении до которой содержащийся в воздухе водяной пар достигнет насыщения.
f - Относительная влажность воздуха - влажноcть воздуха, измеренная на высоте 2 м над землей.
Te - Эффективная температура - температура, которую ощущает одетый по сезону человек в тени. Характеристика душности погоды. При расчете учитывается влияние влажности воздуха и скорости ветра на теплоощущения человека.
Tes - Эффективная температура на солнце - температура, которую ощущает человек, с поправкой на солнечный нагрев. Характеристика знойности погоды. Зависит от высоты солнца над горизонтом, облачности и скорости ветра. Ночью, в пасмурную погоду, а также при ветре 12 м/с и более поправка равна нулю.
P - Атмосферное давление - приведенное к уровню моря атмосферное давление.
Po - Атмосферное давление - измеренное на уровне метеостанции атмосферное давление.
Tmin - Минимальная температура - минимум температуры воздуха на высоте 2 м над землей.
Tmax - Максимальная температура - максимум температуры воздуха на высоте 2 м над землей.
R - Количество осадков - Количество выпавших осадков за период времени, мм. При наведении курсора мыши на число - период времени, за который выпало указанное количество осадков.
R24 - Количество осадков - Количество выпавших осадков за 24 часа, мм.
S - Снежный покров - Высота снежного покрова, см. При наведении курсора мыши на число - состояние снежного покрова и степень покрытия местности в баллах.